Location: Amherst
(42.3800°N, 72.5240°W)
Time: 10:31:40
(UTC-04:00)

ISS - Pass Details

Date: 19 May 2021
Orbit: 417 x 422 km, 51.6° (Epoch: 14 June)

Event Time Altitude Azimuth Distance (km) Brightness Sun altitude
Rises 22:18:27 0° 285° (WNW) 2,363 0.9 -18.9°
Reaches altitude 10° 22:21:01 10° 305° (NW) 1,501 0.1 -19.1°
Maximum altitude 22:23:26 18° 351° (N) 1,103 -0.9 -19.4°
Drops below altitude 10° 22:25:52 10° 38° (NE) 1,505 -0.7 -19.7°
Sets 22:28:26 0° 58° (ENE) 2,371 0.1 -19.9°
